"2010-05-19 00:00:00",124300,11.5,350.9,1.397,0.829,15.81,105.9783,14.58,15.44,38.46,0,110.6,13.25,15.38,312.9
"2010-05-19 00:00:30",124301,11.28,351.5,2.197,0.85,15.75,105.9864,14.6,15.47,38.37,0,110.6,13.25,15.40,313.5
"2010-05-19 00:01:00",124302,11.56,351,1.292,0.768,15.64,105.9867,14.6,15.48,39.31,0,110.6,13.25,15.40,313.0
"2010-05-19 00:01:30",124303,11.49,350.6,1.42,0.88,15.89,105.983,14.59,15.49,39.12,0,110.6,13.25,15.39,312.6
"2010-05-19 00:02:00",124304,11.47,350.4,1.467,0.635,15.65,105.9785,14.58,15.5,39.89,0,110.6,13.25,15.38,312.4
"2010-05-19 00:02:30",124305,12.5,348.9,1.81,0.655,15.67,105.9774,14.57,15.51,40.1,0,110.6,13.22,15.38,310.9
"2010-05-19 00:03:00",124306,13.76,351.4,6.703,1.294,17.62,105.9637,14.54,15.64,39.08,0,110.6,13.22,15.34,313.4
"2010-05-19 00:03:30",124307,12.77,346.8,1.133,0.19,15.9,105.9501,14.5,15.55,38.64,0,110.6,13.26,15.31,308.8
"2010-05-19 00:04:00",124308,13.18,347,0.855,0.251,15.24,105.949,14.5,15.47,39.34,0,110.6,13.26,15.30,309.0
"2010-05-19 00:04:30",124309,12.79,345.4,1.417,0.302,15.2,105.9551,14.52,15.44,39.72,0,110.6,13.26,15.32,307.4
"2010-05-19 00:05:00",124310,13.61,353.5,7.407,1.45,17.77,105.9348,14.47,15.62,40.92,0,110.6,13.22,15.27,315.5
"2010-05-19 00:05:30",124311,14.1,356.7,7.103,1.229,18.69,105.9264,14.44,15.63,41.37,0,110.6,13.22,15.25,318.7
"2010-05-19 00:06:00",124312,13.4,353.8,6.6,1.538,17.64,105.905,14.39,15.59,41.73,0,110.6,13.22,15.19,315.8
"2010-05-19 00:06:30",124313,12.16,354.8,7.576,1.385,16.54,105.888,14.35,15.45,42.44,0,110.6,13.22,15.15,316.8
"2010-05-19 00:07:00",124314,10.27,349.2,2.767,1.043,14.28,105.8749,14.31,15.41,43.05,0,110.6,13.22,15.11,311.2
"2010-05-19 00:07:30",124315,12.65,352,7.585,1.301,16.18,105.8519,14.25,15.41,41.75,0,110.6,13.22,15.06,314.0
"2010-05-19 00:08:00",124316,11.55,342,2.382,0.213,14.45,105.8499,14.25,15.29,41.19,0,110.6,13.22,15.05,304.0
"2010-05-19 00:08:30",124317,10.99,336.2,1.525,0.369,14.68,105.8727,14.31,15.22,41.24,0,110.6,13.26,15.11,298.2
"2010-05-19 00:09:00",124318,10.38,336.3,1.551,0.2,14.83,105.8967,14.37,15.24,41.08,0,110.6,13.26,15.17,298.3
"2010-05-19 00:09:30",124319,10.47,338.2,1.727,0.312,15.05,105.9122,14.41,15.29,40.97,0,110.6,13.26,15.21,300.2
"2010-05-19 00:10:00",124320,10.47,339.1,1.506,0.173,15.22,105.933,14.46,15.33,41.3,0,110.6,13.26,15.26,301.1
"2010-05-19 00:10:30",124321,10.07,335,1.009,0.266,15.89,105.9476,14.5,15.34,40.76,0,110.6,13.26,15.30,297.0
"2010-05-19 00:11:00",124322,9.78,336.5,2.133,0.32,15.86,105.9769,14.57,15.38,41.1,0,110.6,13.26,15.38,298.5
"2010-05-19 00:11:30",124323,9.44,333.8,1.621,0.688,16.51,106.0045,14.64,15.43,42.34,0,110.6,13.26,15.45,295.8
"2010-05-19 00:12:00",124324,8.39,336.8,3.439,0.485,16.53,106.0476,14.75,15.5,45.97,0,110.6,13.26,15.56,298.8
"2010-05-19 00:12:30",124325,9.01,338.3,4.226,0.467,16.31,106.0808,14.84,15.58,41.53,0,110.6,13.26,15.64,300.3
"2010-05-19 00:13:00",124326,9.22,345,2.389,0.397,16.11,106.0817,14.84,15.63,40.8,0,110.6,13.26,15.65,307.0
"2010-05-19 00:13:30",124327,9.4,344.9,2.538,0.264,16.06,106.082,14.84,15.64,40.78,0,110.6,13.27,15.65,306.9
"2010-05-19 00:14:00",124328,9.16,348.3,2.793,0.606,15.93,106.0831,14.85,15.67,39.95,0,110.6,13.27,15.65,310.3
"2010-05-19 00:14:30",124329,9.09,344.7,3.672,0.836,16.27,106.0619,14.79,15.66,40.48,0,110.6,13.26,15.60,306.7
"2010-05-19 00:15:00",124330,9.16,343.4,3.512,0.414,16.41,106.0646,14.8,15.66,40.43,0,110.5,13.27,15.60,305.4
"2010-05-19 00:15:30",124331,9,344.1,3.392,0.35,16.49,106.0709,14.81,15.67,40.41,0,110.5,13.27,15.62,306.1
"2010-05-19 00:16:00",124332,8.72,345.4,2.792,0.776,16.75,106.0753,14.83,15.67,40.08,0,110.5,13.27,15.63,307.4
"2010-05-19 00:16:30",124333,7.969,343.1,2.773,0.371,16.67,106.0923,14.87,15.68,40.3,0,110.5,13.27,15.67,305.1
"2010-05-19 00:17:00",124334,8.23,345.2,2.579,0.281,16.19,106.1044,14.9,15.71,40.22,0,110.5,13.28,15.70,307.2
"2010-05-19 00:17:30",124335,7.532,348.4,4.597,0.708,16.76,106.1123,14.92,15.72,40.22,0,110.5,13.28,15.72,310.4
"2010-05-19 00:18:00",124336,8.08,347.2,3.754,0.66,16.21,106.1138,14.92,15.73,40.68,0,110.5,13.28,15.73,309.2
"2010-05-19 00:18:30",124337,7.435,346.5,2.598,0.4,16.32,106.1147,14.93,15.74,40.25,0,110.5,13.28,15.73,308.5
"2010-05-19 00:19:00",124338,7.558,346.4,2.133,0.2,16.2,106.1102,14.92,15.74,40.33,0,110.5,13.28,15.72,308.4
"2010-05-19 00:19:30",124339,7.712,344.5,2.414,0.504,16.38,106.0902,14.86,15.74,40.64,0,110.5,13.28,15.67,306.5
"2010-05-19 00:20:00",124340,8.27,344.7,2.057,0.267,17.14,106.0831,14.85,15.73,40.69,0,110.5,13.28,15.65,306.7
"2010-05-19 00:20:30",124341,8.59,342.7,1.996,0.213,15.97,106.0662,14.8,15.71,41.26,0,110.5,13.28,15.61,304.7
"2010-05-19 00:21:00",124342,8.09,341.3,2.831,0.276,16.28,106.0493,14.76,15.69,41.36,0,110.5,13.28,15.56,303.3
"2010-05-19 00:21:30",124343,7.672,341.3,2.873,0.414,16.75,106.0468,14.75,15.66,41.32,0,110.5,13.28,15.56,303.3
"2010-05-19 00:22:00",124344,7.982,342.7,2.101,0.361,14.07,106.0423,14.74,15.66,41.33,0,110.5,13.28,15.54,304.7
"2010-05-19 00:22:30",124345,7.903,342.6,4.1,0.466,16.9,106.0409,14.74,15.64,41.86,0,110.5,13.28,15.54,304.6
"2010-05-19 00:23:00",124346,6.991,348.8,7.834,0.817,17.8,106.0493,14.76,15.73,41.51,0,110.5,13.25,15.56,310.8
"2010-05-19 00:23:30",124347,7.27,350.4,6.383,1.295,17.72,106.0493,14.76,15.74,41.43,0,110.5,13.25,15.56,312.4
"2010-05-19 00:24:00",124348,9,352.1,5.7,1.593,18.24,106.0493,14.76,15.74,41.41,0,110.5,13.25,15.56,314.1
"2010-05-19 00:24:30",124349,7.449,347.1,1.875,0.518,13.63,106.0493,14.76,15.66,41.48,0,110.5,13.28,15.56,309.1
"2010-05-19 00:25:00",124350,7.292,343.4,5.239,0.68,16.24,106.0493,14.76,15.68,42.4,0,110.5,13.28,15.56,305.4
"2010-05-19 00:25:30",124351,7.718,349.4,4.794,1.538,17.91,106.0493,14.76,15.82,41.82,0,110.5,13.25,15.56,311.4
"2010-05-19 00:26:00",124352,7.859,338.6,6.657,1.395,16.79,106.0493,14.76,15.74,41.23,0,110.5,13.25,15.56,300.6
"2010-05-19 00:26:30",124353,8.3,345.2,7.84,1.33,18.07,106.0533,14.77,15.8,41.17,0,110.5,13.25,15.57,307.2
"2010-05-19 00:27:00",124354,8.63,346.8,6.824,1.349,13.63,106.0578,14.78,15.95,41.41,0,110.5,13.25,15.58,308.8
"2010-05-19 00:27:30",124355,8.1,344.7,7.135,1.676,18.63,106.0756,14.83,15.85,40.89,0,110.5,13.24,15.63,306.7
"2010-05-19 00:28:00",124356,7.209,337.1,5.366,1.288,13.24,106.0879,14.86,15.88,41.15,0,110.5,13.24,15.66,299.1
"2010-05-19 00:28:30",124357,6.171,331.1,2.164,0.317,-8.53,106.1087,14.91,15.75,40.91,0,110.5,13.27,15.72,293.1
"2010-05-19 00:29:00",124358,5.796,326.4,4.181,0.701,-9.98,106.1333,14.97,15.91,41.17,0,110.5,13.24,15.78,288.4
"2010-05-19 00:29:30",124359,6.25,329.8,4.49,1.371,-6.314,106.1423,15,15.81,40.85,0,110.5,13.24,15.80,291.8
"2010-05-19 00:30:00",124360,4.692,327.2,3.884,0.177,-3.746,106.1459,15.01,15.92,40.88,0,110.5,13.27,15.81,289.2
"2010-05-19 00:30:30",124361,5.468,332.1,8.63,1.521,17.69,106.1505,15.02,15.96,41.14,0,110.5,13.24,15.82,294.1
"2010-05-19 00:31:00",124362,5.652,325.4,5.26,0.981,17.2,106.1288,14.96,15.99,41.5,0,110.5,13.24,15.77,287.4
"2010-05-19 00:31:30",124363,6.391,326.9,5.653,1.284,18.9,106.119,14.94,16.05,41.46,0,110.5,13.24,15.74,288.9
"2010-05-19 00:32:00",124364,5.924,325,6.48,1.045,16.95,106.1159,14.93,16.03,41.37,0,110.5,13.25,15.73,287.0
"2010-05-19 00:32:30",124365,3.673,318.2,4.586,1.104,15.54,106.1184,14.94,15.78,40.89,0,110.5,13.25,15.74,280.2
"2010-05-19 00:33:00",124366,3.133,328.3,9.51,0.297,14.17,106.119,14.94,15.8,40.37,0,110.5,13.29,15.74,290.3
"2010-05-19 00:33:30",124367,4.332,339.8,2.579,0.387,13.99,106.1181,14.94,15.79,40,0,110.5,13.29,15.74,301.8
"2010-05-19 00:34:00",124368,4.619,334.3,9.7,0.445,13.9,106.0889,14.86,15.77,40.3,0,110.5,13.29,15.66,296.3
"2010-05-19 00:34:30",124369,5.029,342,7.046,0.455,14.13,106.0711,14.81,15.73,40.5,0,110.5,13.29,15.62,304.0
"2010-05-19 00:35:00",124370,4.81,335.2,6.818,0.309,14.85,106.0494,14.76,15.68,40.39,0,110.5,13.29,15.56,297.2
"2010-05-19 00:35:30",124371,5.616,332.4,3.06,0.286,15.16,106.0596,14.79,15.72,40.03,0,110.5,13.3,15.59,294.4
"2010-05-19 00:36:00",124372,6.418,328.8,2.786,0.199,15.14,106.0615,14.79,15.7,39.87,0,110.5,13.3,15.59,290.8
"2010-05-19 00:36:30",124373,6.358,328.9,4.161,0.412,15.17,106.0514,14.76,15.69,40.14,0,110.5,13.3,15.57,290.9
"2010-05-19 00:37:00",124374,6.441,326,4.107,0.255,15.3,106.0215,14.69,15.66,40.06,0,110.5,13.3,15.49,288.0
"2010-05-19 00:37:30",124375,6.065,322.8,3.59,0.29,15.3,105.9959,14.62,15.61,40.4,0,110.5,13.3,15.43,284.8
"2010-05-19 00:38:00",124376,5.628,322.9,3.448,0.225,15.38,105.9725,14.56,15.55,40.45,0,110.5,13.3,15.37,284.9
"2010-05-19 00:38:30",124377,5.91,322,4.703,0.505,15.41,105.9455,14.49,15.52,41.05,0,110.5,13.3,15.30,284.0
"2010-05-19 00:39:00",124378,5.762,321,7.671,0.73,16.65,105.9261,14.44,15.48,41.24,0,110.5,13.3,15.25,283.0
"2010-05-19 00:39:30",124379,3.37,309.4,7.102,1.002,17.7,106.0355,14.72,15.55,40.15,0,110.5,13.3,15.53,271.4
"2010-05-19 00:40:00",124380,3.418,340,9.3,0.533,16.03,106.1519,15.02,15.73,40.32,0,110.5,13.3,15.83,302.0
"2010-05-19 00:40:30",124381,2.647,347,20.17,1.334,16.37,106.1549,15.03,15.77,40.1,0,110.5,13.3,15.83,309.0
"2010-05-19 00:41:00",124382,4.702,342.6,3.875,0.375,16.34,106.1895,15.12,15.84,40.53,0,110.5,13.31,15.92,304.6
"2010-05-19 00:41:30",124383,5.403,341.9,2.824,0.467,16.05,106.2028,15.15,15.87,39.78,0,110.5,13.31,15.96,303.9
"2010-05-19 00:42:00",124384,4.856,340.5,4.579,0.591,16.55,106.213,15.18,15.91,39.84,0,110.5,13.31,15.98,302.5
"2010-05-19 00:42:30",124385,6.331,342.6,3.387,0.535,16.27,106.2219,15.2,15.97,39.6,0,110.5,13.31,16.01,304.6
"2010-05-19 00:43:00",124386,6.985,337.3,5.332,0.631,16.86,106.2544,15.28,16.02,39.56,0,110.5,13.31,16.09,299.3
"2010-05-19 00:43:30",124387,6.559,336.9,3.781,0.523,16.63,106.2909,15.38,16.08,39.33,0,110.5,13.3,16.18,298.9
"2010-05-19 00:44:00",124388,7.559,342.4,2.079,0.52,15.91,106.2898,15.38,16.11,39.26,0,110.5,13.3,16.18,304.4
"2010-05-19 00:44:30",124389,8.06,347.8,2.689,0.659,15.65,106.2712,15.33,16.12,38.89,0,110.5,13.3,16.13,309.8
"2010-05-19 00:45:00",124390,8.46,343.8,4.288,0.625,15.7,106.2307,15.22,16.09,39.58,0,110.5,13.3,16.03,305.8
"2010-05-19 00:45:30",124391,9.62,345.2,1.531,0.415,15.46,106.1954,15.13,16.05,39.78,0,110.5,13.3,15.94,307.2
"2010-05-19 00:46:00",124392,9.72,341.1,1.075,0.167,15.56,106.1517,15.02,15.99,40.07,0,110.5,13.3,15.83,303.1
"2010-05-19 00:46:30",124393,9.98,339.9,0.673,0.101,15.73,106.1117,14.92,15.92,40.17,0,110.5,13.3,15.72,301.9
"2010-05-19 00:47:00",124394,9.56,337.5,0.975,0.167,15.66,106.0754,14.83,15.86,40.29,0,110.5,13.3,15.63,299.5
"2010-05-19 00:47:30",124395,10.52,342.6,6.703,1.421,17.46,106.0478,14.76,15.94,40.51,0,110.5,13.27,15.56,304.6
"2010-05-19 00:48:00",124396,9.91,338,5.377,0.916,16.42,106.0193,14.68,15.89,40.64,0,110.5,13.27,15.49,300.0
"2010-05-19 00:48:30",124397,9.51,335.1,0.944,0.208,15.05,105.99,14.61,15.66,40.62,0,110.5,13.3,15.41,297.1
"2010-05-19 00:49:00",124398,8.97,335,1.002,0.226,15,105.9655,14.54,15.62,40.86,0,110.5,13.3,15.35,297.0
"2010-05-19 00:49:30",124399,8.68,334,0.59,0.126,14.96,105.9508,14.51,15.57,40.94,0,110.5,13.3,15.31,296.0
"2010-05-19 00:50:00",124400,8.92,334.6,1.519,0.385,15.51,105.9235,14.44,15.6,40.91,0,110.5,13.31,15.24,296.6
"2010-05-19 00:50:30",124401,10.69,338,7.868,1.486,17.49,105.921,14.43,15.53,40.79,0,110.5,13.27,15.23,300.0
"2010-05-19 00:51:00",124402,9.32,330.3,3.031,0.411,15.22,105.9345,14.47,15.54,40.58,0,110.5,13.31,15.27,292.3
"2010-05-19 00:51:30",124403,8.65,330.1,1.625,0.467,14.91,105.952,14.51,15.45,40.13,0,110.5,13.31,15.31,292.1
"2010-05-19 00:52:00",124404,7.928,331.8,1.441,0.153,14.73,105.952,14.51,15.46,39.78,0,110.5,13.31,15.31,293.8
"2010-05-19 00:52:30",124405,7.494,332.6,2.848,0.397,14.57,105.9514,14.51,15.45,40.7,0,110.5,13.31,15.31,294.6
"2010-05-19 00:53:00",124406,7.333,333,1.326,0.186,14.7,105.9207,14.43,15.41,40.85,0,110.5,13.31,15.23,295.0
"2010-05-19 00:53:30",124407,7.725,333,1.616,0.147,14.99,105.9108,14.4,15.36,40.46,0,110.5,13.32,15.21,295.0
"2010-05-19 00:54:00",124408,7.925,332.7,0.955,0.209,14.99,105.8872,14.34,15.34,40.97,0,110.5,13.32,15.15,294.7
"2010-05-19 00:54:30",124409,9.03,333.3,5.995,1.402,17.29,105.8807,14.33,15.43,40.77,0,110.5,13.28,15.13,295.3
"2010-05-19 00:55:00",124410,8.4,330.9,5.726,1.255,16.83,105.8812,14.33,15.42,40.4,0,110.5,13.28,15.13,292.9
"2010-05-19 00:55:30",124411,8.28,326,2.405,0.233,15.3,105.8843,14.34,15.25,40.5,0,110.5,13.32,15.14,288.0
"2010-05-19 00:56:00",124412,8.06,322.7,2.106,0.505,15.06,105.8855,14.34,15.28,40.85,0,110.5,13.32,15.14,284.7
"2010-05-19 00:56:30",124413,7.122,325.7,0.839,0.253,14.93,105.9058,14.39,15.28,40.76,0,110.5,13.32,15.19,287.7
"2010-05-19 00:57:00",124414,6.655,330,1.405,0.177,14.99,105.9035,14.39,15.28,40.68,0,110.5,13.32,15.19,292.0
"2010-05-19 00:57:30",124415,6.369,333.5,1.206,0.106,15.15,105.8872,14.34,15.27,40.77,0,110.5,13.32,15.15,295.5
"2010-05-19 00:58:00",124416,6.436,335.9,0.674,0.057,15.08,105.8843,14.34,15.27,40.91,0,110.5,13.32,15.14,297.9
"2010-05-19 00:58:30",124417,6.45,336.9,0.959,0.122,15.18,105.8829,14.33,15.24,41.06,0,110.5,13.32,15.13,298.9
"2010-05-19 00:59:00",124418,7.424,341.7,6.362,1.288,16.54,105.8528,14.26,15.29,41.84,0,110.5,13.28,15.06,303.7
"2010-05-19 00:59:30",124419,8.37,346.4,6.324,1.283,19.11,105.85,14.25,15.45,41.56,0,110.5,13.28,15.05,308.4
"2010-05-19 01:00:00",124420,7.123,337.2,6.238,1.024,16.13,105.8449,14.24,15.29,41.56,0,110.5,13.28,15.04,299.2
"2010-05-19 01:00:30",124421,8.5,341,7.766,1.247,16.81,105.8215,14.18,15.23,41.65,0,110.5,13.27,14.98,303.0
"2010-05-19 01:01:00",124422,8.81,343.1,7.324,1.434,17.09,105.8167,14.16,15.39,42.04,0,110.5,13.27,14.96,305.1
"2010-05-19 01:01:30",124423,7.725,336.6,8.4,1.369,15.19,105.8167,14.16,15.15,41.46,0,110.5,13.27,14.96,298.6
"2010-05-19 01:02:00",124424,6.823,328.9,0.576,0.082,13.69,105.8167,14.16,15.09,40.11,0,110.5,13.31,14.96,290.9
"2010-05-19 01:02:30",124425,6.863,330.5,0.806,0.084,14.12,105.8235,14.18,15.1,39.66,0,110.5,13.31,14.98,292.5
"2010-05-19 01:03:00",124426,6.958,332.6,0.986,0.116,14.29,105.8494,14.25,15.12,39.41,0,110.5,13.31,15.05,294.6
"2010-05-19 01:03:30",124427,7.462,334.4,0.598,0.216,15.05,105.8584,14.27,15.13,38.44,0,110.5,13.31,15.07,296.4
"2010-05-19 01:04:00",124428,7.433,334.4,1.661,0.334,15.27,105.8888,14.35,15.18,37.54,0,110.5,13.31,15.15,296.4
"2010-05-19 01:04:30",124429,7.585,337.4,0.893,0.369,15.44,105.9151,14.42,15.21,37.56,0,110.5,13.31,15.22,299.4
"2010-05-19 01:05:00",124430,7.616,337.6,1.17,0.254,15.85,105.9404,14.48,15.26,36.61,0,110.5,13.31,15.28,299.6
"2010-05-19 01:05:30",124431,7.696,336.3,1.226,0.147,16.09,105.9711,14.56,15.34,36.38,0,110.5,13.31,15.36,298.3
"2010-05-19 01:06:00",124432,7.472,337.8,1.09,0.215,16.12,106.0035,14.64,15.37,35.92,0,110.5,13.32,15.44,299.8
"2010-05-19 01:06:30",124433,6.764,342.4,2.889,0.257,15.82,106.0196,14.68,15.44,36.35,0,110.5,13.32,15.49,304.4
"2010-05-19 01:07:00",124434,6.329,345.3,1.27,0.182,15.62,106.0202,14.68,15.48,37.47,0,110.5,13.32,15.49,307.3
"2010-05-19 01:07:30",124435,5.642,347.2,0.859,0.152,15.69,106.0176,14.68,15.47,38.37,0,110.5,13.32,15.48,309.2
"2010-05-19 01:08:00",124436,5.89,345.5,1.247,0.135,15.67,105.988,14.6,15.47,38.57,0,110.5,13.32,15.41,307.5
"2010-05-19 01:08:30",124437,6.387,347.1,1.164,0.181,15.72,105.9804,14.58,15.48,38.37,0,110.5,13.32,15.39,309.1
"2010-05-19 01:09:00",124438,6.976,347.3,1.008,0.239,15.98,105.9663,14.55,15.46,37.55,0,110.5,13.32,15.35,309.3
"2010-05-19 01:09:30",124439,7.723,347.1,0.848,0.19,16.13,105.9593,14.53,15.45,37.24,0,110.5,13.32,15.33,309.1
"2010-05-19 01:10:00",124440,7.072,349,1.562,0.32,15.91,105.9568,14.52,15.45,38.37,0,110.5,13.32,15.32,311.0
"2010-05-19 01:10:30",124441,6.245,354.7,5.47,1.17,16.44,105.9444,14.49,15.57,40.94,0,110.5,13.29,15.29,316.7
"2010-05-19 01:11:00",124442,8.39,5.35,5.965,1.129,19.85,105.9139,14.41,15.71,41.89,0,110.5,13.29,15.21,327.4
"2010-05-19 01:11:30",124443,9.98,4.982,5.805,1.559,18.7,105.886,14.34,15.67,42.05,0,110.5,13.28,15.14,327.0
"2010-05-19 01:12:00",124444,9.2,356.2,7.197,1.665,15.93,105.8666,14.29,15.52,42.75,0,110.4,13.28,15.09,318.2
"2010-05-19 01:12:30",124445,10.59,349.2,2.966,0.76,13.96,105.8502,14.25,15.28,43.33,0,110.5,13.28,15.05,311.2
"2010-05-19 01:13:00",124446,10.5,348.1,0.962,0.244,13.59,105.8218,14.18,15.24,44.05,0,110.5,13.32,14.98,310.1
"2010-05-19 01:13:30",124447,10.66,345.4,1.493,0.161,14.14,105.8116,14.15,15.18,43.55,0,110.5,13.32,14.95,307.4
"2010-05-19 01:14:00",124448,10.4,342.8,1.149,0.249,14.6,105.7854,14.08,15.15,42.67,0,110.5,13.32,14.88,304.8
"2010-05-19 01:14:30",124449,10.23,347.3,1.971,0.316,14.73,105.7829,14.08,15.13,44.04,0,110.5,13.32,14.88,309.3
"2010-05-19 01:15:00",124450,12.33,353.3,6.346,1.441,17.36,105.7841,14.08,15.22,44.19,0,110.4,13.29,14.88,315.3
"2010-05-19 01:15:30",124451,12.97,348.1,8.15,1.48,17.82,105.7835,14.08,15.22,43.17,0,110.5,13.29,14.88,310.1
"2010-05-19 01:16:00",124452,11.91,345.6,6.14,1.77,15.73,105.7875,14.09,15.07,41.17,0,110.5,13.32,14.89,307.6
"2010-05-19 01:16:30",124453,9.11,353.9,10.01,4.236,15.46,105.7918,14.1,15.06,43.12,0,110.5,13.29,14.90,315.9
"2010-05-19 01:17:00",124454,16.7,334.5,10.47,2.452,17.14,105.788,14.09,15.23,42.73,0,110.5,13.28,14.89,296.5
"2010-05-19 01:17:30",124455,20.06,347.4,6.452,1.363,18.83,105.7871,14.09,15.33,44.08,0,110.4,13.28,14.89,309.4
"2010-05-19 01:18:00",124456,19.85,344.9,9.16,1.188,18.61,105.7921,14.1,15.29,42.52,0,110.5,13.28,14.90,306.9
"2010-05-19 01:18:30",124457,18.93,343.7,7.486,1.795,16.7,105.7936,14.1,15.17,41.97,0,110.4,13.28,14.91,305.7
"2010-05-19 01:19:00",124458,13.44,351.1,9.12,1.53,15.96,105.7771,14.06,15.14,45.04,0,110.4,13.28,14.86,313.1
"2010-05-19 01:19:30",124459,14.23,348.3,11.96,1.283,16.04,105.7631,14.03,15.16,43.06,0,110.4,13.28,14.83,310.3
"2010-05-19 01:20:00",124460,13.94,340.5,4.462,1.374,14.35,105.7468,13.98,14.96,42.39,0,110.4,13.31,14.79,302.5
"2010-05-19 01:20:30",124461,16.75,338.2,2.549,1.078,14.74,105.7331,13.95,14.96,42.21,0,110.4,13.31,14.75,300.2
"2010-05-19 01:21:00",124462,17.9,344.5,9.58,1.758,16.97,105.7332,13.95,15.09,43.56,0,110.4,13.28,14.75,306.5
"2010-05-19 01:21:30",124463,18.26,342.6,9.08,1.488,17.53,105.7083,13.89,15.09,43.37,0,110.4,13.28,14.69,304.6
"2010-05-19 01:22:00",124464,17.98,343.7,6.93,1.459,18.51,105.7044,13.88,15.11,43.46,0,110.4,13.28,14.68,305.7
"2010-05-19 01:22:30",124465,17.19,356.4,6.754,1.229,19.21,105.6921,13.84,15.14,44.18,0,110.4,13.28,14.64,318.4
"2010-05-19 01:23:00",124466,14.95,349.9,8.34,2.433,15.81,105.6723,13.79,14.88,44.05,0,110.4,13.28,14.59,311.9
"2010-05-19 01:23:30",124467,15.15,346,5.193,1.978,15.94,105.6712,13.79,14.87,45.36,0,110.4,13.28,14.59,308.0
"2010-05-19 01:24:00",124468,15.02,336.4,3.074,0.854,13.85,105.6471,13.73,14.74,45.62,0,110.4,13.32,14.53,298.4
"2010-05-19 01:24:30",124469,14.05,342.4,8.29,1.585,14.25,105.6361,13.7,14.76,45.96,0,110.4,13.28,14.50,304.4
"2010-05-19 01:25:00",124470,16.9,342,6.997,1.965,16.6,105.6094,13.63,14.8,44.38,0,110.4,13.29,14.43,304.0
"2010-05-19 01:25:30",124471,16.05,336.6,6.635,1.371,15.96,105.6056,13.62,14.81,43.35,0,110.4,13.29,14.42,298.6
"2010-05-19 01:26:00",124472,18.4,342.6,4.682,0.945,18.19,105.5806,13.56,14.92,43.11,0,110.4,13.29,14.36,304.6
"2010-05-19 01:26:30",124473,16.8,333.7,10.18,1.857,16.89,105.5567,13.5,14.85,43.95,0,110.4,13.29,14.30,295.7
"2010-05-19 01:27:00",124474,16.45,330.5,7.224,1.424,15.59,105.5408,13.46,14.66,42.8,0,110.4,13.29,14.26,292.5
"2010-05-19 01:27:30",124475,14.19,322.7,0.798,0.163,13.06,105.5127,13.38,14.44,41.39,0,110.4,13.32,14.18,284.7
"2010-05-19 01:28:00",124476,14.81,328.3,6.554,1.354,-5.174,105.5049,13.36,14.51,42.16,0,110.4,13.28,14.16,290.3
"2010-05-19 01:28:30",124477,14.82,328.2,7.005,1.299,11.36,105.4801,13.3,14.57,42.16,0,110.4,13.29,14.10,290.2
"2010-05-19 01:29:00",124478,14.03,327,6.364,1.303,15.1,105.4541,13.23,14.5,43.97,0,110.4,13.29,14.03,289.0
"2010-05-19 01:29:30",124479,14.34,330.1,5.825,1.157,15.61,105.4223,13.15,14.55,44.91,0,110.4,13.29,13.95,292.1
"2010-05-19 01:30:00",124480,12.63,324.9,6.819,1.498,16.71,105.3845,13.06,14.43,46.39,0,110.4,13.29,13.85,286.9
"2010-05-19 01:30:30",124481,11.05,318.3,5.657,1.119,14.8,105.3346,12.93,14.18,46.89,0,110.4,13.29,13.73,280.3
"2010-05-19 01:31:00",124482,11.82,318.9,7.035,1.261,10.66,105.2988,12.84,14.11,45.35,0,110.4,13.29,13.63,280.9
"2010-05-19 01:31:30",124483,11.39,313.4,5.56,1.388,-8.32,105.2577,12.73,14.05,46.97,0,110.4,13.29,13.53,275.4
"2010-05-19 01:32:00",124484,10.6,310.3,5.656,1.168,14.29,105.2174,12.63,14.01,48.6,0,110.4,13.29,13.43,272.3
"2010-05-19 01:32:30",124485,11.47,318.3,5.402,1.069,17.7,105.1672,12.5,14.01,50.34,0,110.4,13.29,13.30,280.3
"2010-05-19 01:33:00",124486,11.83,323.7,5.376,1.099,-2.721,105.1249,12.39,13.9,49.48,0,110.4,13.29,13.19,285.7
"2010-05-19 01:33:30",124487,11.65,325.1,5.104,1.113,2.815,105.0834,12.29,13.8,49.18,0,110.4,13.29,13.08,287.1
"2010-05-19 01:34:00",124488,11.24,323.6,4.621,0.934,14.99,105.0476,12.19,13.74,50.65,0,110.4,13.28,12.99,285.6
"2010-05-19 01:34:30",124489,11.06,326.9,4.894,0.753,3.477,104.9989,12.07,13.66,51.36,0,110.4,13.28,12.86,288.9
"2010-05-19 01:35:00",124490,10.47,331.3,3.555,0.785,18.02,104.9529,11.95,13.55,50.87,0,110.4,13.28,12.75,293.3
"2010-05-19 01:35:30",124491,10.34,336.8,3.368,0.68,10.05,104.9081,11.84,13.45,48.06,0,110.4,13.28,12.63,298.8
"2010-05-19 01:36:00",124492,10.01,343.4,4.997,0.67,14.74,104.8766,11.76,13.34,47.9,0,110.4,13.28,12.55,305.4
"2010-05-19 01:36:30",124493,9.94,349.7,3.465,0.934,18.51,104.8483,11.68,13.26,48.15,0,110.4,13.28,12.48,311.7
"2010-05-19 01:37:00",124494,9.72,346.5,6.365,0.787,11.46,104.8235,11.62,13.17,47.89,0,110.4,13.28,12.41,308.5
"2010-05-19 01:37:30",124495,9.37,356.9,6.104,0.768,18.26,104.8071,11.58,13.1,47.97,0,110.4,13.28,12.37,318.9
"2010-05-19 01:38:00",124496,9.11,3.072,4.307,1.14,9.41,104.8002,11.56,13.05,48.71,0,110.4,13.28,12.35,325.1
"2010-05-19 01:38:30",124497,9.22,2.364,3.929,0.755,17.93,104.7631,11.47,12.94,49.51,0,110.4,13.29,12.26,324.4
"2010-05-19 01:39:00",124498,8.2,9.42,5.445,0.842,13.43,104.718,11.35,12.85,50.2,0,110.3,13.3,12.14,331.4
"2010-05-19 01:39:30",124499,8.51,13.59,4.173,0.976,17.82,104.6695,11.23,12.75,50.74,0,110.3,13.29,12.02,335.6
"2010-05-19 01:40:00",124500,7.896,25.89,5.121,1.022,16.94,104.6179,11.09,12.61,53.93,0,110.3,13.3,11.89,347.9
"2010-05-19 01:40:30",124501,9.48,30.02,3.814,0.9,14.75,104.5592,10.94,12.51,56.68,0,110.3,13.3,11.73,352.0
"2010-05-19 01:41:00",124502,10.85,32.74,3.15,0.714,12.16,104.5347,10.88,12.38,56.75,0,110.3,13.3,11.67,354.7
"2010-05-19 01:41:30",124503,10.33,35.8,3.499,0.991,16.51,104.5099,10.82,12.31,57.28,0,110.3,13.3,11.61,357.8
"2010-05-19 01:42:00",124504,8.54,28.8,6.701,1.191,16.64,104.5011,10.8,12.25,55.36,0,110.3,13.31,11.59,350.8
"2010-05-19 01:42:30",124505,9.71,33.32,3.922,1.082,11.65,104.5064,10.81,12.2,55,0,110.3,13.31,11.60,355.3
"2010-05-19 01:43:00",124506,10.58,37.05,5.436,1.25,14.62,104.5077,10.81,12.18,55.83,0,110.3,13.31,11.60,359.0
"2010-05-19 01:43:30",124507,10.61,46.68,4.592,1.367,16.51,104.498,10.79,12.14,57.97,0,110.3,13.31,11.58,8.7
"2010-05-19 01:44:00",124508,9.83,53.51,6.458,1.206,17.08,104.5006,10.79,12.14,60.26,0,110.3,13.31,11.58,15.5
"2010-05-19 01:44:30",124509,9.07,53.73,12.97,1.065,17.93,104.5024,10.8,12.09,59.54,0,110.3,13.31,11.59,15.7
"2010-05-19 01:45:00",124510,8.62,56.84,6.62,0.905,-9.05,104.501,10.8,11.86,61.1,0,110.3,13.31,11.59,18.8
"2010-05-19 01:45:30",124511,7.771,65.74,6.557,1.15,-18.24,104.4651,10.7,11.89,63.68,0,110.3,13.31,11.49,27.7
"2010-05-19 01:46:00",124512,6.135,66.67,1.206,0.277,-39.04,104.4307,10.62,11.7,65.86,0,110.3,13.32,11.40,28.7
"2010-05-19 01:46:30",124513,7.773,64.14,8.35,1.454,-5.654,104.4008,10.54,11.76,66.46,0,110.3,13.32,11.33,26.1
"2010-05-19 01:47:00",124514,8.83,70.09,4.885,0.738,-10.6,104.3952,10.52,11.88,65.83,0,110.3,13.33,11.31,32.1
"2010-05-19 01:47:30",124515,9.44,67.11,8.08,1.571,16.64,104.3796,10.49,11.76,66.23,0,110.2,13.33,11.27,29.1
"2010-05-19 01:48:00",124516,10.13,58.75,10.97,1.522,11.08,104.367,10.45,11.73,67.72,0,110.2,13.33,11.24,20.8